When you browse on this site, cookies collect data to enhance your experience and personalize the content and advertising you see.
Visit our Privacy Policy to learn more. By continuing to use the site, you agree to this use of cookies and data.
  • Em Portugal
  • Lista de países
  • Para 7 dias
  • Temperatura da água
  • Mapas de satélite
  • Mapa do tempo
  • Widgets de tempo
  • user-avatar
    Iniciar Sessão

    Previsão horária em Hatetskoe

    Hoje, 22 Abril, Segunda-feira

    Tempo Temperatura Precipitação Vento Pressão Humidade
    00:00 +9°C° 0 mm 2 m/s 756 mmHg 57%
    01:00 +8°C° 0 mm 2 m/s 756 mmHg 57%
    02:00 +8°C° 0 mm 2 m/s 757 mmHg 57%
    03:00 +8°C° 0 mm 2 m/s 757 mmHg 55%
    04:00 +8°C° 0 mm 2 m/s 757 mmHg 54%
    05:00 +8°C° 0 mm 2 m/s 757 mmHg 53%
    06:00 +9°C° 0 mm 2 m/s 758 mmHg 51%
    07:00 +12°C° 0 mm 2 m/s 758 mmHg 50%
    08:00 +13°C° 0 mm 2 m/s 758 mmHg 48%
    09:00 +13°C° 0 mm 3 m/s 758 mmHg 42%
    10:00 +14°C° 0 mm 3 m/s 758 mmHg 35%
    11:00 +16°C° 0 mm 3 m/s 759 mmHg 29%
    12:00 +17°C° 0 mm 3 m/s 758 mmHg 29%
    13:00 +17°C° 0 mm 3 m/s 758 mmHg 29%
    14:00 +17°C° 0 mm 3 m/s 758 mmHg 29%
    15:00 +17°C° 0 mm 3 m/s 758 mmHg 30%
    16:00 +17°C° 0 mm 2 m/s 758 mmHg 31%
    17:00 +16°C° 0 mm 2 m/s 758 mmHg 33%
    18:00 +15°C° 0 mm 2 m/s 758 mmHg 36%
    19:00 +14°C° 0 mm 1 m/s 758 mmHg 39%
    20:00 +13°C° 0 mm 1 m/s 759 mmHg 42%
    21:00 +12°C° 0 mm 1 m/s 759 mmHg 44%
    22:00 +11°C° 0 mm 1 m/s 759 mmHg 46%
    23:00 +9°C° 0 mm 0 m/s 759 mmHg 48%

    Amanhã, 23 Abril, Terça-feira

    Tempo Temperatura Precipitação Vento Pressão Humidade
    00:00 +10°C° 0 mm 1 m/s 760 mmHg 49%
    01:00 +10°C° 0 mm 1 m/s 760 mmHg 49%
    02:00 +10°C° 0 mm 1 m/s 760 mmHg 50%
    03:00 +10°C° 0 mm 1 m/s 760 mmHg 51%
    04:00 +10°C° 0 mm 1 m/s 760 mmHg 51%
    05:00 +10°C° 0 mm 1 m/s 760 mmHg 52%
    06:00 +11°C° 0 mm 1 m/s 760 mmHg 50%
    07:00 +12°C° 0 mm 1 m/s 761 mmHg 48%
    08:00 +14°C° 0 mm 1 m/s 761 mmHg 46%
    09:00 +15°C° 0 mm 1 m/s 761 mmHg 41%
    10:00 +18°C° 0 mm 1 m/s 761 mmHg 36%
    11:00 +19°C° 0 mm 1 m/s 761 mmHg 31%
    12:00 +19°C° 0 mm 1 m/s 761 mmHg 31%
    13:00 +19°C° 0 mm 1 m/s 760 mmHg 32%
    14:00 +19°C° 0 mm 1 m/s 760 mmHg 32%
    15:00 +19°C° 0 mm 1 m/s 760 mmHg 34%
    16:00 +19°C° 0 mm 1 m/s 760 mmHg 35%
    17:00 +19°C° 0 mm 1 m/s 759 mmHg 37%
    18:00 +16°C° 0 mm 1 m/s 760 mmHg 40%
    19:00 +15°C° 0 mm 1 m/s 760 mmHg 44%
    20:00 +13°C° 0 mm 1 m/s 760 mmHg 47%
    21:00 +13°C° 0 mm 1 m/s 760 mmHg 50%
    22:00 +12°C° 0 mm 1 m/s 760 mmHg 52%
    23:00 +11°C° 0 mm 1 m/s 760 mmHg 55%

    Depois de amanhã, 24 Abril, Quarta-feira

    Tempo Temperatura Precipitação Vento Pressão Humidade
    00:00 +11°C° 0 mm 1 m/s 760 mmHg 56%
    01:00 +11°C° 0 mm 1 m/s 760 mmHg 56%
    02:00 +10°C° 0 mm 1 m/s 760 mmHg 57%
    03:00 +10°C° 0 mm 1 m/s 760 mmHg 59%
    04:00 +10°C° 0 mm 1 m/s 761 mmHg 60%
    05:00 +9°C° 0 mm 1 m/s 761 mmHg 61%
    06:00 +11°C° 0 mm 1 m/s 761 mmHg 57%
    07:00 +13°C° 0 mm 2 m/s 761 mmHg 53%
    08:00 +15°C° 0 mm 2 m/s 761 mmHg 49%
    09:00 +16°C° 0 mm 2 m/s 761 mmHg 44%
    10:00 +17°C° 0 mm 2 m/s 761 mmHg 39%
    11:00 +19°C° 0 mm 3 m/s 761 mmHg 34%
    12:00 +19°C° 0 mm 3 m/s 760 mmHg 33%
    13:00 +19°C° 0 mm 3 m/s 760 mmHg 33%
    14:00 +20°C° 0 mm 3 m/s 760 mmHg 33%
    15:00 +19°C° 0 mm 3 m/s 760 mmHg 34%
    16:00 +19°C° 0 mm 3 m/s 759 mmHg 36%
    17:00 +19°C° 0 mm 3 m/s 759 mmHg 38%
    18:00 +17°C° 0 mm 2 m/s 759 mmHg 43%
    19:00 +15°C° 0 mm 2 m/s 759 mmHg 48%
    20:00 +14°C° 0 mm 2 m/s 759 mmHg 53%
    21:00 +13°C° 0 mm 2 m/s 759 mmHg 55%
    22:00 +12°C° 0 mm 2 m/s 759 mmHg 57%
    23:00 +12°C° 0 mm 1 m/s 760 mmHg 58%

    25 Abril, Quinta-feira

    Tempo Temperatura Precipitação Vento Pressão Humidade
    00:00 +11°C° 0 mm 1 m/s 760 mmHg 59%
    01:00 +11°C° 0 mm 1 m/s 760 mmHg 60%
    02:00 +11°C° 0 mm 1 m/s 760 mmHg 61%
    03:00 +10°C° 0 mm 1 m/s 760 mmHg 62%
    04:00 +10°C° 0 mm 1 m/s 760 mmHg 63%
    05:00 +10°C° 0 mm 1 m/s 760 mmHg 64%
    06:00 +12°C° 0 mm 1 m/s 760 mmHg 59%
    07:00 +14°C° 0 mm 2 m/s 760 mmHg 55%
    08:00 +15°C° 0 mm 2 m/s 760 mmHg 50%
    09:00 +17°C° 0 mm 2 m/s 760 mmHg 46%
    10:00 +18°C° 0 mm 3 m/s 760 mmHg 41%
    11:00 +19°C° 0 mm 3 m/s 760 mmHg 37%
    12:00 +20°C° 0 mm 4 m/s 759 mmHg 36%
    13:00 +20°C° 0 mm 4 m/s 759 mmHg 35%
    14:00 +21°C° 0 mm 4 m/s 759 mmHg 35%
    15:00 +21°C° 0 mm 4 m/s 758 mmHg 36%
    16:00 +20°C° 0 mm 4 m/s 758 mmHg 38%
    17:00 +20°C° 0 mm 3 m/s 758 mmHg 40%
    18:00 +18°C° 0 mm 3 m/s 758 mmHg 45%
    19:00 +16°C° 0 mm 3 m/s 758 mmHg 50%
    20:00 +15°C° 0 mm 2 m/s 758 mmHg 55%
    21:00 +14°C° 0 mm 2 m/s 758 mmHg 57%
    22:00 +13°C° 0 mm 2 m/s 758 mmHg 58%
    23:00 +13°C° 0 mm 2 m/s 758 mmHg 60%

    26 Abril, Sexta-feira

    Tempo Temperatura Precipitação Vento Pressão Humidade
    00:00 +12°C° 0 mm 2 m/s 758 mmHg 61%
    01:00 +12°C° 0 mm 2 m/s 757 mmHg 62%
    02:00 +10°C° 0 mm 2 m/s 757 mmHg 63%
    03:00 +10°C° 0 mm 2 m/s 757 mmHg 65%
    04:00 +10°C° 0 mm 2 m/s 757 mmHg 67%
    05:00 +9°C° 0 mm 2 m/s 757 mmHg 68%
    06:00 +11°C° 0 mm 3 m/s 757 mmHg 64%
    07:00 +13°C° 0 mm 3 m/s 756 mmHg 60%
    08:00 +16°C° 0 mm 3 m/s 756 mmHg 56%
    09:00 +17°C° 0 mm 4 m/s 756 mmHg 50%
    10:00 +19°C° 0 mm 4 m/s 756 mmHg 44%
    11:00 +21°C° 0 mm 5 m/s 755 mmHg 39%
    12:00 +21°C° 0 mm 5 m/s 755 mmHg 38%
    13:00 +22°C° 0 mm 5 m/s 754 mmHg 37%
    14:00 +22°C° 0 mm 5 m/s 754 mmHg 37%
    15:00 +22°C° 0 mm 5 m/s 754 mmHg 39%
    16:00 +22°C° 0 mm 5 m/s 753 mmHg 41%
    17:00 +21°C° 0 mm 4 m/s 753 mmHg 42%
    18:00 +19°C° 0 mm 4 m/s 753 mmHg 48%
    19:00 +18°C° 0 mm 4 m/s 753 mmHg 54%
    20:00 +16°C° 0 mm 3 m/s 753 mmHg 60%
    21:00 +14°C° 0 mm 3 m/s 753 mmHg 61%
    22:00 +13°C° 0 mm 3 m/s 753 mmHg 62%
    23:00 +13°C° 0 mm 3 m/s 752 mmHg 63%

    27 Abril, Sábado

    Tempo Temperatura Precipitação Vento Pressão Humidade
    00:00 +12°C° 0 mm 3 m/s 752 mmHg 65%
    01:00 +12°C° 0 mm 3 m/s 752 mmHg 66%
    02:00 +11°C° 0 mm 3 m/s 752 mmHg 67%
    03:00 +11°C° 0 mm 3 m/s 752 mmHg 69%
    04:00 +11°C° 0 mm 3 m/s 752 mmHg 71%
    05:00 +10°C° 0 mm 3 m/s 752 mmHg 73%
    06:00 +12°C° 0 mm 3 m/s 752 mmHg 67%
    07:00 +14°C° 0 mm 4 m/s 752 mmHg 61%
    08:00 +17°C° 0 mm 4 m/s 752 mmHg 56%
    09:00 +19°C° 0 mm 5 m/s 752 mmHg 51%
    10:00 +20°C° 0 mm 5 m/s 752 mmHg 47%
    11:00 +22°C° 0 mm 6 m/s 752 mmHg 43%
    12:00 +23°C° 0 mm 6 m/s 752 mmHg 41%
    13:00 +23°C° 0 mm 6 m/s 752 mmHg 40%
    14:00 +24°C° 0 mm 6 m/s 751 mmHg 38%
    15:00 +23°C° 0 mm 5 m/s 751 mmHg 40%
    16:00 +23°C° 0 mm 5 m/s 751 mmHg 42%
    17:00 +23°C° 0 mm 4 m/s 751 mmHg 44%
    18:00 +21°C° 0 mm 4 m/s 751 mmHg 49%
    19:00 +19°C° 0 mm 3 m/s 751 mmHg 55%
    20:00 +17°C° 0 mm 3 m/s 751 mmHg 61%
    21:00 +16°C° 0 mm 3 m/s 751 mmHg 63%
    22:00 +16°C° 0 mm 3 m/s 751 mmHg 65%
    23:00 +14°C° 0 mm 3 m/s 751 mmHg 67%
    Mostrar mais